Powrót do katalogu

STARLINK-5195

AktywnyŁącznośćVLEO
NORAD 54051·PAYLOAD·🇺🇸 United States

Wystrzelony Oct 20, 2022 z Cape Canaveral Space Force Station

Loading…

Następne Przeloty (najbliższe 24 godziny)

TLE

ŚwieżeSource: CelesTrak SupGP

Epoka: Sep 14, 2026, 21:08 UTC

1 54051C 22136A   26257.88104167  .00367720  00000+0  16824-1 0  2579
2 54051  53.1608 214.5521 0001454  90.9774 270.0880 15.19823459    13

Śledź STARLINK-5195 w czasie rzeczywistym z AllMySat

Download on the App Store